date,time,SUV Intensity [MED/Hr],UV Index,Daily total [MED],Since Last [MED]
04/03/2022,00:05:20,0.000,0.0,0.0,0.0
04/03/2022,00:06:20,0.000,0.0,0.0,0.0
04/03/2022,00:07:21,0.000,0.0,0.0,0.0
04/03/2022,00:08:20,-0.000,0.0,0.0,0.0
04/03/2022,00:09:21,-0.000,0.0,0.0,0.0
04/03/2022,00:10:20,0.000,0.0,0.0,0.0
04/03/2022,00:11:21,-0.001,0.0,0.0,0.0
04/03/2022,00:12:21,0.000,0.0,0.0,0.0
04/03/2022,00:13:20,-0.001,0.0,0.0,0.0
04/03/2022,00:14:21,-0.000,0.0,0.0,0.0
04/03/2022,00:15:20,0.000,0.0,0.0,0.0
04/03/2022,00:16:21,-0.001,0.0,0.0,0.0
04/03/2022,00:17:22,0.000,0.0,0.0,0.0
04/03/2022,00:18:20,0.000,0.0,0.0,0.0
04/03/2022,00:19:20,0.000,0.0,0.0,0.0
04/03/2022,00:20:21,0.001,0.0,0.0,0.0
04/03/2022,00:21:29,-0.000,0.0,0.0,0.0
04/03/2022,00:22:20,0.000,0.0,0.0,0.0
04/03/2022,00:23:20,-0.001,0.0,0.0,0.0
04/03/2022,00:24:21,-0.000,0.0,0.0,0.0
04/03/2022,00:25:20,0.000,0.0,0.0,0.0
04/03/2022,00:26:20,0.000,0.0,0.0,0.0
04/03/2022,00:27:21,0.001,0.0,0.0,0.0
04/03/2022,00:28:21,0.000,0.0,0.0,0.0
04/03/2022,00:29:20,0.000,0.0,0.0,0.0
04/03/2022,00:30:20,-0.001,0.0,0.0,0.0
04/03/2022,00:31:29,-0.000,0.0,0.0,0.0
04/03/2022,00:32:19,0.000,0.0,0.0,0.0
04/03/2022,00:33:21,-0.000,0.0,0.0,0.0
04/03/2022,00:34:12,0.000,0.0,0.0,0.0
04/03/2022,00:35:21,0.000,0.0,0.0,0.0
04/03/2022,00:36:21,0.000,0.0,0.0,0.0
04/03/2022,00:37:29,-0.000,0.0,0.0,0.0
04/03/2022,00:38:20,0.000,0.0,0.0,0.0
04/03/2022,00:39:29,0.000,0.0,0.0,0.0
04/03/2022,00:40:29,0.000,0.0,0.0,0.0
04/03/2022,00:41:20,-0.001,0.0,0.0,0.0
04/03/2022,00:42:20,0.000,0.0,0.0,0.0
04/03/2022,00:43:21,0.000,0.0,0.0,0.0
04/03/2022,00:44:20,0.000,0.0,0.0,0.0
04/03/2022,00:45:20,-0.001,0.0,0.0,0.0
04/03/2022,00:46:21,0.000,0.0,0.0,0.0
04/03/2022,00:47:29,0.000,0.0,0.0,0.0
04/03/2022,00:48:21,-0.000,0.0,0.0,0.0
04/03/2022,00:49:20,0.000,0.0,0.0,0.0
04/03/2022,00:50:21,0.001,0.0,0.0,0.0
04/03/2022,00:51:20,-0.001,0.0,0.0,0.0
04/03/2022,00:52:21,0.000,0.0,0.0,0.0
04/03/2022,00:53:21,0.001,0.0,0.0,0.0
04/03/2022,00:54:20,0.000,0.0,0.0,0.0
04/03/2022,00:55:29,0.000,0.0,0.0,0.0
04/03/2022,00:56:20,0.000,0.0,0.0,0.0
04/03/2022,00:57:29,0.000,0.0,0.0,0.0
04/03/2022,00:58:27,0.000,0.0,0.0,0.0
04/03/2022,00:59:29,0.000,0.0,0.0,0.0
04/03/2022,01:00:20,0.001,0.0,0.0,0.0
04/03/2022,01:01:21,0.000,0.0,0.0,0.0
04/03/2022,01:02:21,0.001,0.0,0.0,0.0
04/03/2022,01:03:20,-0.001,0.0,0.0,0.0
04/03/2022,01:04:21,0.000,0.0,0.0,0.0
04/03/2022,01:05:20,-0.001,0.0,0.0,0.0
04/03/2022,01:06:20,0.000,0.0,0.0,0.0
04/03/2022,01:07:21,0.000,0.0,0.0,0.0
04/03/2022,01:08:29,-0.001,0.0,0.0,0.0
04/03/2022,01:09:37,0.000,0.0,0.0,0.0
04/03/2022,01:11:21,0.000,0.0,0.0,0.0
04/03/2022,01:12:21,0.000,0.0,0.0,0.0
04/03/2022,01:13:21,0.000,0.0,0.0,0.0
04/03/2022,01:14:20,0.001,0.0,0.0,0.0
04/03/2022,01:15:21,0.001,0.0,0.0,0.0
04/03/2022,01:16:21,0.000,0.0,0.0,0.0
04/03/2022,01:17:20,0.000,0.0,0.0,0.0
04/03/2022,01:18:21,0.001,0.0,0.0,0.0
04/03/2022,01:19:21,0.000,0.0,0.0,0.0
04/03/2022,01:20:20,0.000,0.0,0.0,0.0
04/03/2022,01:21:29,0.001,0.0,0.0,0.0
04/03/2022,01:22:21,0.000,0.0,0.0,0.0
04/03/2022,01:23:20,0.001,0.0,0.0,0.0
04/03/2022,01:24:21,-0.001,0.0,0.0,0.0
04/03/2022,01:25:20,0.001,0.0,0.0,0.0
04/03/2022,01:26:20,0.001,0.0,0.0,0.0
04/03/2022,01:27:21,0.000,0.0,0.0,0.0
04/03/2022,01:28:20,0.000,0.0,0.0,0.0
04/03/2022,01:29:29,0.000,0.0,0.0,0.0
04/03/2022,01:30:21,0.000,0.0,0.0,0.0
04/03/2022,01:31:20,0.000,0.0,0.0,0.0
04/03/2022,01:32:21,0.000,0.0,0.0,0.0
04/03/2022,01:33:21,0.000,0.0,0.0,0.0
04/03/2022,01:34:20,0.000,0.0,0.0,0.0
04/03/2022,01:35:21,0.001,0.0,0.0,0.0
04/03/2022,01:36:21,0.001,0.0,0.0,0.0
04/03/2022,01:37:20,0.000,0.0,0.0,0.0
04/03/2022,01:38:21,0.000,0.0,0.0,0.0
04/03/2022,01:39:29,0.001,0.0,0.0,0.0
04/03/2022,01:40:20,0.001,0.0,0.0,0.0
04/03/2022,01:41:21,0.000,0.0,0.0,0.0
04/03/2022,01:42:29,0.001,0.0,0.0,0.0
04/03/2022,01:43:20,0.001,0.0,0.0,0.0
04/03/2022,01:44:21,-0.000,0.0,0.0,0.0
04/03/2022,01:45:29,0.001,0.0,0.0,0.0
04/03/2022,01:46:21,0.001,0.0,0.0,0.0
04/03/2022,01:47:20,0.001,0.0,0.0,0.0
04/03/2022,01:48:21,0.001,0.0,0.0,0.0
04/03/2022,01:49:20,0.001,0.0,0.0,0.0
04/03/2022,01:50:21,0.001,0.0,0.0,0.0
04/03/2022,01:51:20,0.001,0.0,0.0,0.0
04/03/2022,01:52:21,0.001,0.0,0.0,0.0
04/03/2022,01:54:22,0.001,0.0,0.0,0.0
04/03/2022,01:55:29,0.001,0.0,0.0,0.0
04/03/2022,01:56:20,0.001,0.0,0.0,0.0
04/03/2022,01:57:20,0.001,0.0,0.0,0.0
04/03/2022,01:58:21,0.001,0.0,0.0,0.0
04/03/2022,01:59:20,0.001,0.0,0.0,0.0
04/03/2022,02:00:20,0.001,0.0,0.0,0.0
04/03/2022,02:01:21,0.001,0.0,0.0,0.0
04/03/2022,02:02:21,0.001,0.0,0.0,0.0
04/03/2022,02:03:29,0.001,0.0,0.0,0.0
04/03/2022,02:04:19,0.001,0.0,0.0,0.0
04/03/2022,02:05:21,0.001,0.0,0.0,0.0
04/03/2022,02:06:29,0.001,0.0,0.0,0.0
04/03/2022,02:07:21,0.001,0.0,0.0,0.0
04/03/2022,02:08:21,0.001,0.0,0.0,0.0
04/03/2022,02:09:29,0.002,0.0,0.0,0.0
04/03/2022,02:10:20,0.001,0.0,0.0,0.0
04/03/2022,02:11:21,0.001,0.0,0.0,0.0
04/03/2022,02:12:21,0.001,0.0,0.0,0.0
04/03/2022,02:13:21,0.001,0.0,0.0,0.0
04/03/2022,02:14:21,0.001,0.0,0.0,0.0
04/03/2022,02:15:28,0.001,0.0,0.0,0.0
04/03/2022,02:16:19,0.001,0.0,0.0,0.0
04/03/2022,02:17:21,0.001,0.0,0.0,0.0
04/03/2022,02:18:20,0.001,0.0,0.0,0.0
04/03/2022,02:19:29,0.001,0.0,0.0,0.0
04/03/2022,02:20:21,0.001,0.0,0.0,0.0
04/03/2022,02:21:21,0.001,0.0,0.0,0.0
04/03/2022,02:22:21,0.001,0.0,0.0,0.0
04/03/2022,02:23:20,0.001,0.0,0.0,0.0
04/03/2022,02:24:21,0.001,0.0,0.0,0.0
04/03/2022,02:25:21,0.002,0.0,0.0,0.0
04/03/2022,02:26:20,0.002,0.0,0.0,0.0
04/03/2022,02:27:21,0.001,0.0,0.0,0.0
04/03/2022,02:28:20,0.001,0.0,0.0,0.0
04/03/2022,02:29:20,0.001,0.0,0.0,0.0
04/03/2022,02:30:21,0.002,0.0,0.0,0.0
04/03/2022,02:31:21,0.000,0.0,0.0,0.0
04/03/2022,02:32:20,0.001,0.0,0.0,0.0
04/03/2022,02:33:21,0.001,0.0,0.0,0.0
04/03/2022,02:34:12,0.001,0.0,0.0,0.0
04/03/2022,02:35:21,0.002,0.0,0.0,0.0
04/03/2022,02:36:29,0.001,0.0,0.0,0.0
04/03/2022,02:37:21,0.001,0.0,0.0,0.0
04/03/2022,02:38:21,0.001,0.0,0.0,0.0
04/03/2022,02:39:20,0.001,0.0,0.0,0.0
04/03/2022,02:40:21,0.001,0.0,0.0,0.0
04/03/2022,02:41:21,0.001,0.0,0.0,0.0
04/03/2022,02:42:21,0.001,0.0,0.0,0.0
04/03/2022,02:43:20,0.001,0.0,0.0,0.0
04/03/2022,02:44:21,0.001,0.0,0.0,0.0
04/03/2022,02:45:21,0.001,0.0,0.0,0.0
04/03/2022,02:46:29,0.002,0.0,0.0,0.0
04/03/2022,02:47:31,0.001,0.0,0.0,0.0
04/03/2022,02:48:20,0.001,0.0,0.0,0.0
04/03/2022,02:49:21,0.001,0.0,0.0,0.0
04/03/2022,02:50:21,0.001,0.0,0.0,0.0
04/03/2022,02:51:20,0.002,0.0,0.0,0.0
04/03/2022,02:52:21,0.001,0.0,0.0,0.0
04/03/2022,02:53:21,0.001,0.0,0.0,0.0
04/03/2022,02:54:20,0.001,0.0,0.0,0.0
04/03/2022,02:55:21,0.001,0.0,0.0,0.0
04/03/2022,02:56:21,0.002,0.0,0.0,0.0
04/03/2022,02:57:29,0.001,0.0,0.0,0.0
04/03/2022,02:58:21,0.002,0.0,0.0,0.0
04/03/2022,02:59:21,0.001,0.0,0.0,0.0
04/03/2022,03:00:29,0.001,0.0,0.0,0.0
04/03/2022,03:01:21,0.001,0.0,0.0,0.0
04/03/2022,03:02:21,0.002,0.0,0.0,0.0
04/03/2022,03:03:21,0.001,0.0,0.0,0.0
04/03/2022,03:04:21,0.001,0.0,0.0,0.0
04/03/2022,03:05:21,0.002,0.0,0.0,0.0
04/03/2022,03:06:21,0.001,0.0,0.0,0.0
04/03/2022,03:07:20,0.001,0.0,0.0,0.0
04/03/2022,03:08:21,0.001,0.0,0.0,0.0
04/03/2022,03:09:21,0.002,0.0,0.0,0.0
04/03/2022,03:10:29,0.001,0.0,0.0,0.0
04/03/2022,03:11:29,0.001,0.0,0.0,0.0
04/03/2022,03:12:21,0.001,0.0,0.0,0.0
04/03/2022,03:13:20,0.001,0.0,0.0,0.0
04/03/2022,03:14:21,0.001,0.0,0.0,0.0
04/03/2022,03:15:21,0.001,0.0,0.0,0.0
04/03/2022,03:16:21,0.001,0.0,0.0,0.0
04/03/2022,03:17:20,0.001,0.0,0.0,0.0
04/03/2022,03:18:29,0.002,0.0,0.0,0.0
04/03/2022,03:19:21,0.001,0.0,0.0,0.0
04/03/2022,03:20:21,0.001,0.0,0.0,0.0
04/03/2022,03:21:21,0.002,0.0,0.0,0.0
04/03/2022,03:22:20,0.002,0.0,0.0,0.0
04/03/2022,03:23:22,0.001,0.0,0.0,0.0
04/03/2022,03:24:20,0.001,0.0,0.0,0.0
04/03/2022,03:25:21,0.001,0.0,0.0,0.0
04/03/2022,03:26:21,0.001,0.0,0.0,0.0
04/03/2022,03:27:20,0.002,0.0,0.0,0.0
04/03/2022,03:28:21,0.001,0.0,0.0,0.0
04/03/2022,03:29:21,0.002,0.0,0.0,0.0
04/03/2022,03:30:21,0.001,0.0,0.0,0.0
04/03/2022,03:31:20,0.002,0.0,0.0,0.0
04/03/2022,03:32:21,0.001,0.0,0.0,0.0
04/03/2022,03:33:21,0.001,0.0,0.0,0.0
04/03/2022,03:34:31,0.001,0.0,0.0,0.0
04/03/2022,03:35:20,0.002,0.0,0.0,0.0
04/03/2022,03:36:21,0.001,0.0,0.0,0.0
04/03/2022,03:37:21,0.002,0.0,0.0,0.0
04/03/2022,03:38:21,0.002,0.0,0.0,0.0
04/03/2022,03:39:21,0.001,0.0,0.0,0.0
04/03/2022,03:40:23,0.002,0.0,0.0,0.0
04/03/2022,03:41:30,0.001,0.0,0.0,0.0
04/03/2022,03:42:19,0.002,0.0,0.0,0.0
04/03/2022,03:43:21,0.002,0.0,0.0,0.0
04/03/2022,03:44:21,0.002,0.0,0.0,0.0
04/03/2022,03:45:29,0.002,0.0,0.0,0.0
04/03/2022,03:46:20,0.001,0.0,0.0,0.0
04/03/2022,03:47:21,0.002,0.0,0.0,0.0
04/03/2022,03:48:21,0.002,0.0,0.0,0.0
04/03/2022,03:49:21,0.001,0.0,0.0,0.0
04/03/2022,03:50:21,0.003,0.0,0.0,0.0
04/03/2022,03:51:21,0.002,0.0,0.0,0.0
04/03/2022,03:52:21,0.002,0.0,0.0,0.0
04/03/2022,03:53:20,0.001,0.0,0.0,0.0
04/03/2022,03:54:21,0.002,0.0,0.0,0.0
04/03/2022,03:56:22,0.001,0.0,0.0,0.0
04/03/2022,03:57:21,0.002,0.0,0.0,0.0
04/03/2022,03:58:22,0.001,0.0,0.0,0.0
04/03/2022,03:59:20,0.002,0.0,0.0,0.0
04/03/2022,04:00:21,0.001,0.0,0.0,0.0
04/03/2022,04:01:21,0.002,0.0,0.0,0.0
04/03/2022,04:02:21,0.002,0.0,0.0,0.0
04/03/2022,04:03:21,0.002,0.0,0.0,0.0
04/03/2022,04:04:08,0.002,0.0,0.0,0.0
04/03/2022,04:05:23,0.001,0.0,0.0,0.0
04/03/2022,04:06:20,0.002,0.0,0.0,0.0
04/03/2022,04:07:21,0.002,0.0,0.0,0.0
04/03/2022,04:08:23,0.001,0.0,0.0,0.0
04/03/2022,04:09:21,0.001,0.0,0.0,0.0
04/03/2022,04:10:20,0.001,0.0,0.0,0.0
04/03/2022,04:11:21,0.002,0.0,0.0,0.0
04/03/2022,04:12:21,0.002,0.0,0.0,0.0
04/03/2022,04:13:21,0.002,0.0,0.0,0.0
04/03/2022,04:14:21,0.002,0.0,0.0,0.0
04/03/2022,04:15:12,0.002,0.0,0.0,0.0
04/03/2022,04:16:22,0.001,0.0,0.0,0.0
04/03/2022,04:17:21,0.002,0.0,0.0,0.0
04/03/2022,04:18:21,0.001,0.0,0.0,0.0
04/03/2022,04:19:29,0.002,0.0,0.0,0.0
04/03/2022,04:20:21,0.003,0.0,0.0,0.0
04/03/2022,04:21:21,0.001,0.0,0.0,0.0
04/03/2022,04:22:30,0.002,0.0,0.0,0.0
04/03/2022,04:23:20,0.002,0.0,0.0,0.0
04/03/2022,04:24:21,0.001,0.0,0.0,0.0
04/03/2022,04:25:21,0.003,0.0,0.0,0.0
04/03/2022,04:26:21,0.002,0.0,0.0,0.0
04/03/2022,04:27:21,0.001,0.0,0.0,0.0
04/03/2022,04:28:21,0.002,0.0,0.0,0.0
04/03/2022,04:29:21,0.002,0.0,0.0,0.0
04/03/2022,04:30:21,0.002,0.0,0.0,0.0
04/03/2022,04:31:21,0.002,0.0,0.0,0.0
04/03/2022,04:32:30,0.001,0.0,0.0,0.0
04/03/2022,04:33:28,0.002,0.0,0.0,0.0
04/03/2022,04:34:21,0.002,0.0,0.0,0.0
04/03/2022,04:35:21,0.002,0.0,0.0,0.0
04/03/2022,04:36:29,0.002,0.0,0.0,0.0
04/03/2022,04:37:21,0.001,0.0,0.0,0.0
04/03/2022,04:38:21,0.002,0.0,0.0,0.0
04/03/2022,04:39:21,0.002,0.0,0.0,0.0
04/03/2022,04:40:21,0.002,0.0,0.0,0.0
04/03/2022,04:41:21,0.002,0.0,0.0,0.0
04/03/2022,04:42:21,0.002,0.0,0.0,0.0
04/03/2022,04:43:21,0.002,0.0,0.0,0.0
04/03/2022,04:44:21,0.002,0.0,0.0,0.0
04/03/2022,04:45:21,0.002,0.0,0.0,0.0
04/03/2022,04:46:21,0.001,0.0,0.0,0.0
04/03/2022,04:47:21,0.002,0.0,0.0,0.0
04/03/2022,04:48:21,0.002,0.0,0.0,0.0
04/03/2022,04:49:21,0.002,0.0,0.0,0.0
04/03/2022,04:50:21,0.002,0.0,0.0,0.0
04/03/2022,04:51:21,0.002,0.0,0.0,0.0
04/03/2022,04:52:21,0.001,0.0,0.0,0.0
04/03/2022,04:53:29,0.001,0.0,0.0,0.0
04/03/2022,04:54:21,0.002,0.0,0.0,0.0
04/03/2022,04:55:20,0.002,0.0,0.0,0.0
04/03/2022,04:56:21,0.001,0.0,0.0,0.0
04/03/2022,04:57:21,0.002,0.0,0.0,0.0
04/03/2022,04:58:21,0.002,0.0,0.0,0.0
04/03/2022,04:59:20,0.002,0.0,0.0,0.0
04/03/2022,05:00:21,0.003,0.0,0.0,0.0
04/03/2022,05:01:21,0.002,0.0,0.0,0.0
04/03/2022,05:02:20,0.001,0.0,0.0,0.0
04/03/2022,05:03:29,0.002,0.0,0.0,0.0
04/03/2022,05:04:21,0.002,0.0,0.0,0.0
04/03/2022,05:05:21,0.002,0.0,0.0,0.0
04/03/2022,05:06:21,0.002,0.0,0.0,0.0
04/03/2022,05:07:21,0.002,0.0,0.0,0.0
04/03/2022,05:08:21,0.003,0.0,0.0,0.0
04/03/2022,05:09:21,0.002,0.0,0.0,0.0
04/03/2022,05:10:20,0.001,0.0,0.0,0.0
04/03/2022,05:11:21,0.002,0.0,0.0,0.0
04/03/2022,05:12:21,0.002,0.0,0.0,0.0
04/03/2022,05:13:21,0.002,0.0,0.0,0.0
04/03/2022,05:14:21,0.002,0.0,0.0,0.0
04/03/2022,05:15:21,0.003,0.0,0.0,0.0
04/03/2022,05:16:22,0.002,0.0,0.0,0.0
04/03/2022,05:17:30,0.002,0.0,0.0,0.0
04/03/2022,05:18:20,0.001,0.0,0.0,0.0
04/03/2022,05:19:21,0.003,0.0,0.0,0.0
04/03/2022,05:20:21,0.002,0.0,0.0,0.0
04/03/2022,05:21:21,0.002,0.0,0.0,0.0
04/03/2022,05:22:21,0.002,0.0,0.0,0.0
04/03/2022,05:23:21,0.002,0.0,0.0,0.0
04/03/2022,05:24:22,0.002,0.0,0.0,0.0
04/03/2022,05:25:21,0.002,0.0,0.0,0.0
04/03/2022,05:26:21,0.002,0.0,0.0,0.0
04/03/2022,05:27:21,0.002,0.0,0.0,0.0
04/03/2022,05:28:21,0.001,0.0,0.0,0.0
04/03/2022,05:29:21,0.002,0.0,0.0,0.0
04/03/2022,05:30:21,0.002,0.0,0.0,0.0
04/03/2022,05:31:21,0.003,0.0,0.0,0.0
04/03/2022,05:32:29,0.002,0.0,0.0,0.0
04/03/2022,05:33:21,0.002,0.0,0.0,0.0
04/03/2022,05:34:21,0.001,0.0,0.0,0.0
04/03/2022,05:35:22,0.001,0.0,0.0,0.0
04/03/2022,05:36:21,0.002,0.0,0.0,0.0
04/03/2022,05:37:21,0.002,0.0,0.0,0.0
04/03/2022,05:38:30,0.002,0.0,0.0,0.0
04/03/2022,05:39:21,0.001,0.0,0.0,0.0
04/03/2022,05:40:21,0.002,0.0,0.0,0.0
04/03/2022,05:41:21,0.003,0.0,0.0,0.0
04/03/2022,05:42:21,0.002,0.0,0.0,0.0
04/03/2022,05:43:21,0.002,0.0,0.0,0.0
04/03/2022,05:44:21,0.002,0.0,0.0,0.0
04/03/2022,05:45:21,0.003,0.0,0.0,0.0
04/03/2022,05:46:21,0.002,0.0,0.0,0.0
04/03/2022,05:47:22,0.002,0.0,0.0,0.0
04/03/2022,05:48:21,0.001,0.0,0.0,0.0
04/03/2022,05:49:21,0.002,0.0,0.0,0.0
04/03/2022,05:50:22,0.002,0.0,0.0,0.0
04/03/2022,05:51:30,0.002,0.0,0.0,0.0
04/03/2022,05:52:38,0.002,0.0,0.0,0.0
04/03/2022,05:54:21,0.002,0.0,0.0,0.0
04/03/2022,05:55:21,0.001,0.0,0.0,0.0
04/03/2022,05:56:21,0.001,0.0,0.0,0.0
04/03/2022,05:57:21,0.002,0.0,0.0,0.0
04/03/2022,05:58:21,0.002,0.0,0.0,0.0
04/03/2022,05:59:21,0.003,0.0,0.0,0.0
04/03/2022,06:00:21,0.002,0.0,0.0,0.0
04/03/2022,06:01:21,0.002,0.0,0.0,0.0
04/03/2022,06:02:31,0.002,0.0,0.0,0.0
04/03/2022,06:03:21,0.002,0.0,0.0,0.0
04/03/2022,06:04:21,0.002,0.0,0.0,0.0
04/03/2022,06:05:29,0.002,0.0,0.0,0.0
04/03/2022,06:06:21,0.003,0.0,0.0,0.0
04/03/2022,06:07:21,0.002,0.0,0.0,0.0
04/03/2022,06:08:22,0.002,0.0,0.0,0.0
04/03/2022,06:09:21,0.002,0.0,0.0,0.0
04/03/2022,06:10:21,0.002,0.0,0.0,0.0
04/03/2022,06:12:13,0.001,0.0,0.0,0.0
04/03/2022,06:13:21,0.002,0.0,0.0,0.0
04/03/2022,06:14:21,0.002,0.0,0.0,0.0
04/03/2022,06:15:21,0.002,0.0,0.0,0.0
04/03/2022,06:16:21,0.002,0.0,0.0,0.0
04/03/2022,06:17:21,0.001,0.0,0.0,0.0
04/03/2022,06:18:21,0.002,0.0,0.0,0.0
04/03/2022,06:19:21,0.002,0.0,0.0,0.0
04/03/2022,06:20:22,0.001,0.0,0.0,0.0
04/03/2022,06:21:21,0.002,0.0,0.0,0.0
04/03/2022,06:22:21,0.001,0.0,0.0,0.0
04/03/2022,06:23:21,0.003,0.0,0.0,0.0
04/03/2022,06:24:22,0.001,0.0,0.0,0.0
04/03/2022,06:25:21,0.003,0.0,0.0,0.0
04/03/2022,06:26:29,0.003,0.0,0.0,0.0
04/03/2022,06:27:21,0.001,0.0,0.0,0.0
04/03/2022,06:28:21,0.002,0.0,0.0,0.0
04/03/2022,06:29:21,0.002,0.0,0.0,0.0
04/03/2022,06:30:21,0.002,0.0,0.0,0.0
04/03/2022,06:31:22,0.002,0.0,0.0,0.0
04/03/2022,06:32:21,0.001,0.0,0.0,0.0
04/03/2022,06:33:21,0.002,0.0,0.0,0.0
04/03/2022,06:34:21,0.002,0.0,0.0,0.0
04/03/2022,06:35:21,0.001,0.0,0.0,0.0
04/03/2022,06:36:30,0.002,0.0,0.0,0.0
04/03/2022,06:37:21,0.002,0.0,0.0,0.0
04/03/2022,06:38:21,0.001,0.0,0.0,0.0
04/03/2022,06:39:21,0.002,0.0,0.0,0.0
04/03/2022,06:40:21,0.003,0.0,0.0,0.0
04/03/2022,06:41:23,0.002,0.0,0.0,0.0
04/03/2022,06:42:21,0.002,0.0,0.0,0.0
04/03/2022,06:43:21,0.003,0.0,0.0,0.0
04/03/2022,06:44:21,0.002,0.0,0.0,0.0
04/03/2022,06:45:21,0.002,0.0,0.0,0.0
04/03/2022,06:46:21,0.002,0.0,0.0,0.0
04/03/2022,06:47:21,0.002,0.0,0.0,0.0
04/03/2022,06:48:21,0.002,0.0,0.0,0.0
04/03/2022,06:49:21,0.002,0.0,0.0,0.0
04/03/2022,06:50:21,0.002,0.0,0.0,0.0
04/03/2022,06:51:22,0.003,0.0,0.0,0.0
04/03/2022,06:52:21,0.002,0.0,0.0,0.0
04/03/2022,06:53:21,0.002,0.0,0.0,0.0
04/03/2022,06:54:21,0.002,0.0,0.0,0.0
04/03/2022,06:55:21,0.003,0.0,0.0,0.0
04/03/2022,06:56:21,0.003,0.0,0.0,0.0
04/03/2022,06:57:21,0.003,0.0,0.0,0.0
04/03/2022,06:58:20,0.003,0.0,0.0,0.0
04/03/2022,06:59:21,0.003,0.0,0.0,0.0
04/03/2022,07:00:32,0.003,0.0,0.0,0.0
04/03/2022,07:02:22,0.004,0.0,0.0,0.0
04/03/2022,07:03:21,0.003,0.0,0.0,0.0
04/03/2022,07:04:21,0.003,0.0,0.0,0.0
04/03/2022,07:05:21,0.004,0.0,0.0,0.0
04/03/2022,07:06:21,0.003,0.0,0.0,0.0
04/03/2022,07:07:21,0.003,0.0,0.0,0.0
04/03/2022,07:08:29,0.004,0.0,0.0,0.0
04/03/2022,07:09:21,0.003,0.0,0.0,0.0
04/03/2022,07:10:30,0.003,0.0,0.0,0.0
04/03/2022,07:11:28,0.004,0.0,0.0,0.0
04/03/2022,07:12:21,0.004,0.0,0.0,0.0
04/03/2022,07:13:21,0.004,0.0,0.0,0.0
04/03/2022,07:14:21,0.005,0.0,0.0,0.0
04/03/2022,07:15:21,0.005,0.0,0.0,0.0
04/03/2022,07:16:22,0.005,0.0,0.0,0.0
04/03/2022,07:17:22,0.006,0.0,0.0,0.0
04/03/2022,07:18:30,0.006,0.0,0.0,0.0
04/03/2022,07:19:21,0.008,0.0,0.0,0.0
04/03/2022,07:20:21,0.007,0.0,0.0,0.0
04/03/2022,07:21:29,0.007,0.0,0.0,0.0
04/03/2022,07:22:21,0.007,0.0,0.0,0.0
04/03/2022,07:23:22,0.007,0.0,0.001,0.001
04/03/2022,07:24:21,0.006,0.0,0.001,0.0
04/03/2022,07:25:21,0.007,0.0,0.001,0.0
04/03/2022,07:26:22,0.008,0.0,0.001,0.0
04/03/2022,07:27:21,0.009,0.0,0.001,0.0
04/03/2022,07:28:29,0.009,0.0,0.001,0.0
04/03/2022,07:29:21,0.009,0.0,0.001,0.0
04/03/2022,07:30:21,0.009,0.0,0.002,0.001
04/03/2022,07:31:22,0.009,0.0,0.002,0.0
04/03/2022,07:32:21,0.009,0.0,0.002,0.0
04/03/2022,07:33:21,0.010,0.0,0.002,0.0
04/03/2022,07:34:21,0.011,0.0,0.002,0.0
04/03/2022,07:35:23,0.010,0.0,0.002,0.0
04/03/2022,07:36:21,0.010,0.0,0.002,0.0
04/03/2022,07:37:21,0.010,0.0,0.003,0.001
04/03/2022,07:38:21,0.011,0.0,0.003,0.0
04/03/2022,07:39:21,0.011,0.0,0.003,0.0
04/03/2022,07:40:21,0.012,0.0,0.003,0.0
04/03/2022,07:41:21,0.011,0.0,0.003,0.0
04/03/2022,07:42:30,0.013,0.0,0.004,0.001
04/03/2022,07:43:21,0.012,0.0,0.004,0.0
04/03/2022,07:44:21,0.013,0.0,0.004,0.0
04/03/2022,07:45:21,0.014,0.0,0.004,0.0
04/03/2022,07:46:21,0.013,0.0,0.004,0.0
04/03/2022,07:47:21,0.014,0.0,0.005,0.001
04/03/2022,07:48:22,0.014,0.0,0.005,0.0
04/03/2022,07:49:21,0.013,0.0,0.005,0.0
04/03/2022,07:50:21,0.013,0.0,0.005,0.0
04/03/2022,07:51:21,0.014,0.0,0.006,0.001
04/03/2022,07:52:29,0.014,0.0,0.006,0.0
04/03/2022,07:53:22,0.014,0.0,0.006,0.0
04/03/2022,07:54:21,0.015,0.0,0.006,0.0
04/03/2022,07:55:21,0.016,0.0,0.007,0.001
04/03/2022,07:56:22,0.017,0.0,0.007,0.0
04/03/2022,07:57:21,0.018,0.0,0.007,0.0
04/03/2022,07:58:21,0.019,0.0,0.007,0.0
04/03/2022,07:59:22,0.019,0.0,0.008,0.001
04/03/2022,08:00:22,0.020,0.0,0.008,0.0
04/03/2022,08:01:21,0.019,0.0,0.008,0.0
04/03/2022,08:02:21,0.020,0.0,0.009,0.001
04/03/2022,08:03:21,0.021,0.0,0.009,0.0
04/03/2022,08:04:22,0.021,0.0,0.009,0.0
04/03/2022,08:05:12,0.022,0.0,0.01,0.001
04/03/2022,08:06:22,0.021,0.0,0.01,0.0
04/03/2022,08:07:21,0.022,0.0,0.01,0.0
04/03/2022,08:08:21,0.021,0.0,0.011,0.001
04/03/2022,08:09:21,0.021,0.0,0.011,0.0
04/03/2022,08:10:21,0.023,0.0,0.012,0.001
04/03/2022,08:11:21,0.023,0.0,0.012,0.0
04/03/2022,08:12:22,0.024,0.0,0.012,0.0
04/03/2022,08:13:21,0.025,0.0,0.013,0.001
04/03/2022,08:14:21,0.026,0.0,0.013,0.0
04/03/2022,08:15:22,0.028,0.0,0.014,0.001
04/03/2022,08:16:21,0.030,0.0,0.014,0.0
04/03/2022,08:17:21,0.031,0.0,0.015,0.001
04/03/2022,08:18:22,0.032,0.0,0.015,0.0
04/03/2022,08:19:21,0.034,0.0,0.016,0.001
04/03/2022,08:20:21,0.037,0.0,0.016,0.0
04/03/2022,08:21:21,0.037,0.0,0.017,0.001
04/03/2022,08:22:21,0.038,0.0,0.018,0.001
04/03/2022,08:23:22,0.039,0.0,0.018,0.0
04/03/2022,08:24:22,0.040,0.0,0.019,0.001
04/03/2022,08:25:21,0.043,0.0,0.02,0.001
04/03/2022,08:26:21,0.043,0.0,0.02,0.0
04/03/2022,08:27:22,0.045,0.0,0.021,0.001
04/03/2022,08:28:21,0.047,0.0,0.022,0.001
04/03/2022,08:29:21,0.047,0.0,0.022,0.0
04/03/2022,08:30:21,0.047,0.0,0.023,0.001
04/03/2022,08:31:22,0.049,0.0,0.024,0.001
04/03/2022,08:32:21,0.050,0.0,0.025,0.001
04/03/2022,08:33:21,0.050,0.0,0.026,0.001
04/03/2022,08:34:29,0.051,0.0,0.027,0.001
04/03/2022,08:35:22,0.052,0.0,0.027,0.0
04/03/2022,08:36:09,0.052,0.0,0.028,0.001
04/03/2022,08:37:22,0.053,0.0,0.029,0.001
04/03/2022,08:38:22,0.055,0.0,0.03,0.001
04/03/2022,08:39:22,0.055,0.0,0.031,0.001
04/03/2022,08:40:22,0.054,0.0,0.032,0.001
04/03/2022,08:41:22,0.055,0.0,0.033,0.001
04/03/2022,08:42:21,0.056,0.0,0.034,0.001
04/03/2022,08:43:21,0.056,0.0,0.035,0.001
04/03/2022,08:44:22,0.057,0.0,0.036,0.001
04/03/2022,08:45:21,0.058,0.0,0.037,0.001
04/03/2022,08:46:21,0.060,0.0,0.038,0.001
04/03/2022,08:47:22,0.059,0.0,0.039,0.001
04/03/2022,08:48:21,0.061,0.0,0.04,0.001
04/03/2022,08:49:21,0.060,0.0,0.041,0.001
04/03/2022,08:50:21,0.060,0.0,0.042,0.001
04/03/2022,08:51:21,0.059,0.0,0.043,0.001
04/03/2022,08:52:22,0.060,0.0,0.044,0.001
04/03/2022,08:53:21,0.060,0.0,0.045,0.001
04/03/2022,08:54:21,0.060,0.0,0.046,0.001
04/03/2022,08:55:21,0.064,0.0,0.047,0.001
04/03/2022,08:56:21,0.066,0.0,0.048,0.001
04/03/2022,08:57:21,0.069,0.0,0.049,0.001
04/03/2022,08:58:30,0.072,0.0,0.05,0.001
04/03/2022,08:59:22,0.075,0.0,0.051,0.001
04/03/2022,09:00:22,0.078,0.0,0.052,0.001
04/03/2022,09:01:21,0.081,0.0,0.054,0.002
04/03/2022,09:02:21,0.083,0.0,0.055,0.001
04/03/2022,09:03:22,0.085,0.0,0.057,0.002
04/03/2022,09:04:21,0.088,0.0,0.058,0.001
04/03/2022,09:05:21,0.092,0.0,0.059,0.001
04/03/2022,09:06:22,0.096,0.0,0.061,0.002
04/03/2022,09:07:21,0.100,0.0,0.063,0.002
04/03/2022,09:08:21,0.105,0.0,0.064,0.001
04/03/2022,09:09:21,0.106,0.0,0.066,0.002
04/03/2022,09:10:22,0.109,0.0,0.068,0.002
04/03/2022,09:11:21,0.111,0.0,0.07,0.002
04/03/2022,09:12:29,0.114,0.0,0.072,0.002
04/03/2022,09:13:21,0.115,0.0,0.073,0.001
04/03/2022,09:14:21,0.115,0.0,0.075,0.002
04/03/2022,09:15:21,0.114,0.0,0.077,0.002
04/03/2022,09:16:22,0.114,0.0,0.079,0.002
04/03/2022,09:17:22,0.115,0.0,0.081,0.002
04/03/2022,09:18:21,0.117,0.0,0.083,0.002
04/03/2022,09:19:29,0.117,0.0,0.085,0.002
04/03/2022,09:20:21,0.117,0.0,0.087,0.002
04/03/2022,09:21:22,0.119,0.0,0.089,0.002
04/03/2022,09:22:30,0.119,0.0,0.091,0.002
04/03/2022,09:23:22,0.120,0.0,0.093,0.002
04/03/2022,09:24:21,0.123,0.0,0.095,0.002
04/03/2022,09:25:21,0.126,0.0,0.097,0.002
04/03/2022,09:26:22,0.129,0.0,0.099,0.002
04/03/2022,09:27:21,0.131,0.0,0.101,0.002
04/03/2022,09:28:22,0.132,0.0,0.104,0.003
04/03/2022,09:29:21,0.136,0.0,0.106,0.002
04/03/2022,09:30:21,0.139,0.0,0.108,0.002
04/03/2022,09:31:21,0.143,0.0,0.11,0.002
04/03/2022,09:32:32,0.150,0.0,0.113,0.003
04/03/2022,09:33:21,0.154,0.0,0.115,0.002
04/03/2022,09:34:21,0.158,0.0,0.118,0.003
04/03/2022,09:35:21,0.161,0.0,0.121,0.003
04/03/2022,09:36:22,0.162,0.0,0.123,0.002
04/03/2022,09:37:21,0.162,0.0,0.126,0.003
04/03/2022,09:38:21,0.161,0.0,0.129,0.003
04/03/2022,09:39:22,0.159,0.0,0.131,0.002
04/03/2022,09:40:21,0.157,0.0,0.134,0.003
04/03/2022,09:41:21,0.157,0.0,0.137,0.003
04/03/2022,09:42:21,0.159,0.0,0.139,0.002
04/03/2022,09:43:29,0.159,0.0,0.142,0.003
04/03/2022,09:44:21,0.158,0.0,0.145,0.003
04/03/2022,09:45:21,0.159,0.0,0.147,0.002
04/03/2022,09:46:30,0.158,0.0,0.15,0.003
04/03/2022,09:47:20,0.161,0.0,0.152,0.002
04/03/2022,09:48:22,0.167,0.0,0.155,0.003
04/03/2022,09:49:22,0.173,0.0,0.158,0.003
04/03/2022,09:50:21,0.178,0.0,0.161,0.003
04/03/2022,09:51:21,0.182,0.0,0.164,0.003
04/03/2022,09:52:21,0.185,0.0,0.167,0.003
04/03/2022,09:53:22,0.188,0.0,0.17,0.003
04/03/2022,09:54:21,0.189,0.0,0.173,0.003
04/03/2022,09:55:21,0.188,0.0,0.176,0.003
04/03/2022,09:56:22,0.188,0.0,0.18,0.004
04/03/2022,09:57:22,0.191,0.0,0.183,0.003
04/03/2022,09:58:21,0.191,0.0,0.186,0.003
04/03/2022,09:59:21,0.189,0.0,0.189,0.003
04/03/2022,10:00:21,0.188,0.0,0.192,0.003
04/03/2022,10:01:21,0.186,0.0,0.195,0.003
04/03/2022,10:02:22,0.183,0.0,0.199,0.004
04/03/2022,10:03:22,0.180,0.0,0.202,0.003
04/03/2022,10:04:21,0.179,0.0,0.205,0.003
04/03/2022,10:05:21,0.182,0.0,0.208,0.003
04/03/2022,10:06:22,0.184,0.0,0.211,0.003
04/03/2022,10:07:30,0.183,0.0,0.214,0.003
04/03/2022,10:08:21,0.182,0.0,0.217,0.003
04/03/2022,10:09:21,0.180,0.0,0.22,0.003
04/03/2022,10:10:22,0.177,0.0,0.223,0.003
04/03/2022,10:11:22,0.174,0.0,0.226,0.003
04/03/2022,10:12:21,0.170,0.0,0.228,0.002
04/03/2022,10:13:21,0.165,0.0,0.231,0.003
04/03/2022,10:14:21,0.159,0.0,0.234,0.003
04/03/2022,10:15:22,0.155,0.0,0.237,0.003
04/03/2022,10:16:22,0.154,0.0,0.239,0.002
04/03/2022,10:17:30,0.155,0.0,0.242,0.003
04/03/2022,10:18:21,0.157,0.0,0.244,0.002
04/03/2022,10:19:21,0.158,0.0,0.247,0.003
04/03/2022,10:20:21,0.160,0.0,0.25,0.003
04/03/2022,10:21:22,0.160,0.0,0.252,0.002
04/03/2022,10:22:22,0.162,0.0,0.255,0.003